Volver al catálogo

OPS 8364

DMSP 4

ActivoMeteoSSO
NORAD 6787·PAYLOAD·🇺🇸 United States

Lanzado Aug 17, 1973 desde Vandenberg Space Force Base

Loading…

Próximos Pases (próximas 24 horas)

TLE

ActualizadoSource: Space-Track

Época: Sep 14, 2026, 01:22 UTC

1 06787U 73054A   26257.05758418  .00000156  00000-0  71733-4 0  9994
2 06787  98.5510 123.8065 0026411 130.1252 230.2253 14.33731616764505

Sigue OPS 8364 en tiempo real con AllMySat

Download on the App Store